Regional Weather Roundup
Issued by NWS

Home | Current Version | Previous Version | Graphics & Text | Print | Product List | Glossary Off
Versions: 1 2 3 4 5 6 7 8 9 10 11 12 13 14 15 16 17 18 19 20 21 22 23 24 25 26 27 28 29 30 31 32 33 34 35 36 37 38 39 40 41 42 43 44 45 46 47 48 49 50

000
ASUS44 KEWX 270803
RWRTX
SOUTH TEXAS REGIONAL WEATHER ROUNDUP
NATIONAL WEATHER SERVICE AUSTIN/SAN ANTONIO TX
300 AM CDT TUE JUN 27 2017

NOTE: "FAIR" INDICATED FEW OR NO CLOUDS BELOW 12,000 FEET WITH NO
SIGNIFICANT WEATHER AND/OR OBSTRUCTIONS TO VISIBILITY.

* - THESE STATIONS ARE NOT NWS OR FAA STATIONS...AND ARE NOT SUBJECT
    TO NWS AND FAA QUALITY CONTROL.

TXZ171-172-183>190-270900-
TEXAS HILL COUNTRY AND EDWARDS PLATEAU

CITY           SKY/WX    TMP DP  RH WIND       PRES   REMARKS
JUNCTION       CLOUDY    71  67  87 CALM      30.06F
*LLANO         PTCLDY    73  72  94 CALM      30.08F
BURNET         PTCLDY    73  70  90 NE3       30.07S
*HORSESHOE BAY CLOUDY    73  72  95 CALM      30.05S FOG
*KERRVILLE     MOCLDY    69  68  96 CALM      30.06S
*FREDERICKSBRG CLOUDY    69  67  92 CALM      30.06R
*ROCKSPRINGS   CLOUDY    70  70 100 CALM      30.11S
*BOERNE STAGE  CLOUDY    70  70 100 CALM      30.06R
*CASTROVILLE   MOCLDY    75  74  98 E3        30.03S
HONDO          LGT RAIN  75  73  93 E3        30.02S
*UVALDE        CLOUDY    73  72  96 CALM      30.04S
DEL RIO        CLOUDY    74  72  93 E3        30.02F
LAUGHLIN AFB   NOT AVBL
CARRIZO SPRGS  CLOUDY    75  72  88 E3        30.00F
*EAGLE PASS    CLOUDY    75  72  88 E3        30.01F
$$

TXZ173-191>194-202-209-217>225-228-270900-
CENTRAL AND SOUTH CENTRAL TEXAS

CITY           SKY/WX    TMP DP  RH WIND       PRES   REMARKS
GEORGETOWN     CLOUDY    75  70  83 NW5       30.04S
AUSTIN/BERGSTM LGT RAIN  76  76 100 CALM      30.01F
AUSTIN/MABRY   CLOUDY    73  73 100 CALM      30.03F
*AUSTIN/EXEC     N/A     73  73 100 CALM      30.03S
*LAGO VISTA    CLOUDY    73  72  96 N5        30.06R FOG
SAN MARCOS     CLOUDY    73  73 100 NE5       30.03R
NEW BRAUNFELS  LGT RAIN  75  73  93 CALM      30.00F
RANDOLPH AFB   LGT RAIN  73  73 100 CALM      30.02S
PT SAN ANTONIO NOT AVBL
SAN ANTONIO    LGT RAIN  75  72  90 E5        30.01F
STINSON FIELD  LGT RAIN  76  73  91 E5        29.99F
*LA GRANGE     CLOUDY    76  74  96 CALM      29.98F
*GIDDINGS      CLOUDY    73  71  92 CALM      30.02F
*GONZALES      LGT RAIN  76  76 100 CALM      29.99F
$$

TXZ163>164-176>182-195>201-210>213-226-227-235-270900-
SOUTHEAST TEXAS

CITY           SKY/WX    TMP DP  RH WIND       PRES   REMARKS
COLLEGE STN    CLOUDY    73  72  96 CALM      30.02F
*BRYAN         CLOUDY    73  73 100 E3        30.04S
*CALDWELL      NOT AVBL
*CROCKETT      CLOUDY    73  72  94 CALM      30.07F
*BRENHAM       CLOUDY    75  74  96 CALM      30.01F
HUNTSVILLE     CLOUDY    74  70  87 N3        30.03F
CONROE         MOCLDY    73  71  93 CALM      30.02S
HOUSTON BUSH   CLOUDY    74  71  91 SE3       30.00F
HOUSTON HOBBY  MOCLDY    77  73  87 CALM      29.98F THUNDER
*HOUSTON SW AP PTCLDY    73  71  95 CALM      30.00F
PEARLAND       PTCLDY    77  73  87 CALM      30.00F
HOUSTON HOOKS  PTCLDY    74  72  93 CALM      30.00F
ELLINGTON FLD  MOCLDY    75  72  88 E3        30.00F
SUGAR LAND     PTCLDY    75  72  90 CALM      29.99F
*HOUSTON EXEC  PTCLDY    73  72  94 N3        30.01F
*CLEVELAND MUN PTCLDY    72  71  97 CALM      30.02F FOG
*WHARTON       CLOUDY    73  71  92 CALM      30.01S
*COLUMBUS      FAIR      74  72  95 CALM      30.00F FOG
*EAGLE LAKE    CLOUDY    75  75 100 CALM      29.99F
$$

TXZ214>216-236>238-270900-
THE UPPER TEXAS COAST

CITY           SKY/WX    TMP DP  RH WIND       PRES   REMARKS
*ORANGE        CLOUDY    75  74  95 CALM      30.02F
PORT ARTHUR    CLOUDY   N/A N/A N/A MISG      29.99F
GALVESTON      TSTM      76  76 100 CALM      30.00R VSB 1
ANGLETON       PTCLDY    76  75  97 NE3       29.98F
*BAY CITY      CLOUDY    74  73  96 CALM      29.99S
PALACIOS       CLOUDY    72  72 100 N7        29.98S
$$

TXZ229>234-239>247-270900-
TEXAS COASTAL BEND AND RIO GRANDE PLAINS

CITY           SKY/WX    TMP DP  RH WIND       PRES   REMARKS
VICTORIA       CLOUDY    76  73  91 NE6       29.99F
*BEEVILLE      CLOUDY   N/A N/A N/A NE5       29.99S
ROCKPORT       CLOUDY    80  74  81 E10       29.95F
*PORT ARANSAS  CLOUDY    81  74  80 S5        29.95F
*PORT LAVACA   CLOUDY    76  76  98 CALM      29.98F
*INGLESIDE     CLOUDY    80  75  85 MISG      29.95F
CORPUS CHRISTI CLOUDY    79  75  87 CALM      29.96F
CORPUS NAS     CLOUDY    80  76  87 SE5       29.95F
*ROBSTOWN      CLOUDY    79  79 100 CALM      29.97S
ALICE          CLOUDY    76  75  97 N3        29.96F
KINGSVILLE NAS CLOUDY    77  77 100 NE3       29.95F
COTULLA        CLOUDY    77  71  82 E7        30.00F
*FAITH RANCH   MOCLDY    77  73  88 E6        30.00F
LAREDO         CLOUDY    76  73  91 NE7       29.99F
$$

TXZ248>255-270900-
DEEP SOUTH TEXAS

CITY           SKY/WX    TMP DP  RH WIND       PRES   REMARKS
BROWNSVILLE    CLOUDY    77  76  96 SE3       29.93F
PORT ISABEL    CLOUDY    79  76  90 CALM      29.93F
*SOUTH PADRE   NOT AVBL
HARLINGEN      MOCLDY    77  77 100 N3        29.93F
*HEBBRONVILLE  CLOUDY    76  73  88 CALM      30.00F
MCALLEN        CLOUDY    80  73  79 CALM      29.94F
*WESLACO       MOCLDY    77  74  91 CALM      29.93F
FALFURRIAS     CLOUDY    77  74  91 N3        29.96S
EDINBURG       CLOUDY    77  73  87 CALM      29.94F
*ZAPATA        CLOUDY    77  72  83 CALM      29.96F
$$

TXZ213>215-236>238-242>244-246-247-251-254-255-270900-
CMAN STATIONS

STATION/POSITION TIME  TEMP    WIND        PRES    WAVE
                       AIR SEA DIR/SP/G            HT/PER
                 (UTC) (F)     (DEG/KT/KT) (MB)    (FT/S)
SABINE PASS      0730   79 86  150/ 10/ 13 1017.3
SEA RIM ST PARK  0700   79     120/  7/  9 1016.7
NORTH JETTY/GLS  0724      84  110/ 15/ 18 1015.2
EAGLE POINT      0730   80 84  130/ 12/ 14 1015.8
MORGANS POINT    0730   78 84   90/ 10/ 12 1015.6
MISSION/ARANSAS  0700          120/ 10       N/A
PORT O`CONNOR    0724   81     100/  9/ 12 1014.6
PORT ARANSAS     0700   81 85  100/  9/ 10 1014.6
MALAQUITE BEACH  0724   82 85   90/ 10/ 12 1013.6
BAFFIN BAY       0724   81 87              1014.3
PORT ISABEL      0724   81 87              1013.8
$$

GMZ080-GMZ150>470-270900-
OFFSHORE BUOY REPORTS

STATION/POSITION TIME  TEMP    WIND        PRES    WAVE
                       AIR SEA DIR/SP/G            HT/PER
                 (UTC) (F)     (DEG/KT/KT) (MB)    (FT/S)
20 E GALVESTON   0650   80 83  120/ 14/ 17 1015.7    3/ 4
90 E PT ARANSAS  0650   82 85   80/  8/ 10 1015.1    3/ 5
35 NE PT MANSFLD 0650   80     160/  8/ 16 1013.6    3/ 5
200 E PT ISABEL  0650   81 83   90/  6/  8 1014.7    2/ 5
$$




USA.gov is the U.S. government's official web portal to all federal, state and local government web resources and services.